Regional Weather Roundup
Issued by NWS

Home | Current Version | Previous Version | Graphics & Text | Print | Product List | Glossary On
Versions: 1 2 3 4 5 6 7 8 9 10 11 12 13 14 15 16 17 18 19 20 21 22 23 24 25 26 27 28 29 30 31 32 33 34 35 36 37 38 39 40 41 42 43 44 45 46 47 48 49 50
988
ASUS45 KTFX 282210
RWRMT
MONTANA REGIONAL WEATHER ROUNDUP
NATIONAL WEATHER SERVICE GREAT FALLS MT
400 PM MDT SAT MAY 28 2016

NOTE: "FAIR" INDICATES FEW OR NO CLOUDS BELOW 12000 FEET WITH NO
SIGNIFICANT WEATHER AND/OR OBSTRUCTIONS TO VISIBILITY.

MTZ001>007-043-282300-
WEST OF THE DIVIDE

CITY           SKY/WX    TMP DP  RH WIND       PRES   REMARKS
KALISPELL      PTSUNNY   61  30  31 SW15      30.01R
MISSOULA       PTSUNNY   60  32  34 CALM      30.06R
BUTTE          CLOUDY    57  28  33 W14       30.04R
MULLAN PASS    CLOUDY    43  29  57 MISG      30.09R
ANACONDA         N/A     55  34  44 N8        30.03R
DEER LODGE       N/A     55  28  35 CALM      30.05F
EUREKA           N/A     63  28  27 S9        30.01R
HAMILTON         N/A     61  27  27 W3        30.03S
LIBBY            N/A     59  32  36 S7        30.05R
$$

MTZ008-052>055-282300-
SOUTHWEST MONTANA

CITY           SKY/WX    TMP DP  RH WIND       PRES   REMARKS
BOZEMAN        MOSUNNY   62  42  47 N7        30.02S
DILLON         SUNNY     62  29  28 W12       30.01R
W YELLOWSTONE  CLOUDY    50  34  53 SW18G29   30.10R
ENNIS          MOSUNNY   59  37  44 S9G16     30.08F
$$

MTZ009-010-012-014-046-048-049-054-282300-
EAST SLOPES AND CENTRAL MONTANA

CITY           SKY/WX    TMP DP  RH WIND       PRES   REMARKS
CUT BANK       CLOUDY    56  28  34 W13G24    29.96R
GREAT FALLS    CLOUDY    60  28  29 W16       29.99R
MALMSTROM AFB  MOSUNNY   62  28  27 W10G25    29.98S
HELENA         MOSUNNY   64  30  27 W22G28    30.00S
CHOTEAU          N/A     61  30  31 W13G20    29.99S
$$

MTZ011-013-016-021-045-047-050-051-282300-
NORTH CENTRAL MONTANA

CITY           SKY/WX    TMP DP  RH WIND       PRES   REMARKS
HAVRE          PTSUNNY   63  36  36 W16       29.92S
LEWISTOWN      CLOUDY    61  34  36 NW8       29.99S
N BAR RANCH    PTSUNNY   59  34  38 NW14G21   30.00S
CHINOOK          N/A     64  34  32 W10G17    29.92R
$$

MTZ017>020-022>027-061-062-282300-
NORTHEAST MONTANA

CITY           SKY/WX    TMP DP  RH WIND       PRES   REMARKS
GLASGOW        PTSUNNY   66  43  43 W14       29.90S
JORDAN           N/A     68  37  32 W18G25    29.93R
SIDNEY         CLOUDY    68  51  54 NW18      29.89R
WOLF POINT     MOSUNNY   71  45  39 NW18      29.90S
PLENTYWOOD       N/A     57  54  88 W6        29.90S
POPLAR           N/A     66  46  48 W15G21    29.90R
$$

MTZ028>42-056>058-282300-
SOUTHCENTRAL AND SOUTHEAST MONTANA

CITY           SKY/WX    TMP DP  RH WIND       PRES   REMARKS
BAKER          MOSUNNY   71  46  40 W17G28    29.92S
BILLINGS       PTSUNNY   65  38  36 NW14      29.98R
LIVINGSTON     CLOUDY    56  44  64 SW9       30.01F
MILES CITY     PTSUNNY   69  37  30 NW9       29.92S
FORSYTH          N/A     68  36  30 W14       29.93S
$$

REGIONAL REPORTS...DAKOTAS

CITY           SKY/WX    TMP DP  RH WIND       PRES   REMARKS
WILLISTON      CLOUDY    62  56  80 W6        29.89R
MINOT          PTSUNNY   71  52  50 VRB3      29.87F
DICKINSON      CLOUDY    63  51  65 CALM      29.88S
BEACH          PTSUNNY   66  46  48 W17G28    29.93S
CROSBY           N/A     61  57  88 E9        29.92R
WATFORD CITY     N/A     59  55  88 E5        29.90R
BISMARCK       PTSUNNY   70  54  56 VRB5      29.85F
GRAND FORKS    LGT RAIN  67  58  72 E8        29.81S
FARGO          CLOUDY    66  57  72 NE13      29.81S
BUFFALO SD       N/A     68  51  54 SE9       29.85S
RAPID CITY     CLOUDY    63  52  67 W7        29.94S
$$

REGIONAL REPORTS...WYOMING/IDAHO/WASHINGTON

CITY           SKY/WX    TMP DP  RH WIND       PRES   REMARKS
GILLETTE       CLOUDY    69  45  41 NW13      29.97R
SHERIDAN       MOSUNNY   67  45  45 VRB5      29.98F
BUFFALO WY     PTSUNNY   63  46  54 N7        30.02R
CODY           MOSUNNY   63  43  48 NE6       29.98S
YELLOWSTONE LA   N/A     51  20  29 VRB3G17   30.15S
IDAHO FALLS    MOSUNNY   65  29  25 SW17G25   30.06S
SALMON         CLOUDY    63  36  36 N8        29.99R
BOISE          SUNNY     67  29  24 NW8       30.04F
SPOKANE        PTSUNNY   61  33  35 SW16      30.04F
$$

REGIONAL REPORTS...ALBERTA

CITY           SKY/WX    TMP DP  RH WIND       PRES   REMARKS
EDMONTON       PTSUNNY   59  39  47 N5        29.85S
CALGARY        MOSUNNY   59  30  33 VRB2      29.86F
LETHBRIDGE     MOSUNNY   64  28  25 SW21G31   29.89S
MEDICINE HAT   MOSUNNY   63  37  39 VRB2      29.88S
WATERTON GATE    N/A     55  30  38 SW16G28     N/A
CARDSTON         N/A     57  28  33 W15G23      N/A
MILK RIVER       N/A     59  28  31 W15         N/A
$$

REGIONAL REPORTS...SASKATCHEWAN

CITY           SKY/WX    TMP DP  RH WIND       PRES   REMARKS
SWIFT CURRENT  SUNNY     59  46  63 NW7       29.87F
REGINA         CLOUDY    61  50  67 SE12      29.89S
SASKATOON      CLOUDY    64  46  52 SE16G22   29.86F
CYPRESS HILLS    N/A     48  43  81 NW2         N/A
VAL MARIE        N/A     63  36  36 W14G23      N/A
ROCKGLEN         N/A     59  46  63 NW9         N/A
$$




USA.gov is the U.S. government's official web portal to all federal, state and local government web resources and services.